Regional Weather Roundup
Issued by NWS

Home | Current Version | Previous Version | Graphics & Text | Print | Product List | Glossary On
Versions: 1 2 3 4 5 6 7 8 9 10 11 12 13 14 15 16 17 18 19 20 21 22 23 24 25 26 27 28 29 30 31 32 33 34 35 36 37 38 39 40 41 42 43 44 45 46 47 48 49 50
000
ASUS45 KCYS 280710
RWRWY

WYOMING REGIONAL WEATHER ROUNDUP
NATIONAL WEATHER SERVICE CHEYENNE WY
1200 AM MST SUN DEC 28 2014

NOTE:  "FAIR" INDICATES FEW OR NO CLOUDS BELOW 12,000 FEET
WITH NO SIGNIFICANT WEATHER AND/OR OBSTRUCTIONS TO VISIBILITY.

WYZ001-280800-
YELLOWSTONE NATIONAL PARK

CITY           SKY/WX    TMP DP  RH WIND       PRES   REMARKS
LK YELLOWSTONE   N/A     11   7  84 CALM      29.93F
W YELLOWSTONE  NOT AVBL

$$
WYZ002>013-054>058-071-098>099-280800-
NORTHERN WYOMING

CITY           SKY/WX    TMP DP  RH WIND       PRES   REMARKS
JACKSON        CLOUDY    16  14  93 SW9       30.02F WCI   4
CODY           FAIR      27   7  43 W16G23    29.88S WCI  14
GREYBULL       FAIR      -3  -6  87 CALM      30.00F
WORLAND        FAIR      -5 -10  79 S9        29.98F WCI -22
SHERIDAN       FAIR       4  -1  80 CALM      29.90F
BUFFALO        FAIR      16   2  54 SW8       29.88F WCI   5
GILLETTE       FAIR      14   3  61 S8        29.90F WCI   3
HULETT           N/A    N/A N/A N/A MISG        N/A
NEWCASTLE      FAIR       9   5  85 CALM      29.98F

$$
WYZ014>020-022>026-101>103-280800-
CENTRAL WYOMING

CITY           SKY/WX    TMP DP  RH WIND       PRES   REMARKS
BIG PINEY      FAIR     -11 -15  82 CALM      30.05F
PINEDALE       CLOUDY    -4  -6  92 NW3       30.05F
DUBOIS         NOT AVBL
LANDER         FAIR      12   1  61 SW12      29.93F WCI  -2
RIVERTON       FAIR      13   1  59 S9        29.94F WCI   1
CASPER         FAIR      17   7  64 SW22G29   29.95F WCI   0
DOUGLAS        FAIR      16   6  65 W5        29.97F WCI   9

$$
WYZ021-027>030-104>119-280800-
SOUTHERN WYOMING

CITY           SKY/WX    TMP DP  RH WIND       PRES   REMARKS
EVANSTON       CLOUDY    13   4  67 SW16      30.07F WCI  -3
FORT BRIDGER   PTSUNNY   17   5  61 W17G24    30.08F WCI   1
ROCK SPRINGS   CLOUDY    14   6  70 SW15      30.06F WCI  -1
DIXON          CLOUDY    19   7  59 S12       30.14F WCI   6
RAWLINS        MOCLDY    13   5  70 CALM      30.03F
SARATOGA       PTSUNNY   10   1  67 CALM      30.04F
LARAMIE        FAIR      12   0  58 SW20      29.95F WCI  -6
CHEYENNE       FAIR      19   1  45 W8        29.96F WCI   9
TORRINGTON     FAIR      16   5  62 W5        30.00F WCI   9
PINE BLUFFS    FAIR       3  -4  72 MISG      30.01F

$$



USA.gov is the U.S. government's official web portal to all federal, state and local government web resources and services.